loading
|

ONEWEB-0088, 45457

Orbit data source: Space-Track

ONEWEB-0088, 45457 is a payload satellite owned by One Web (UK) in LEO that was launched on Sat, 21 Mar 2020 UTC via a SOYUZ-2-1B launch vehicle from the Tyuratam Missile And Space Complex (TTMTR). Payloads include a variety of satellites, spacecraft, and rockets equipped with specific instruments for various scientific and technological missions. These include communications satellites like Starlink; space stations such as the ISS; scientific satellites like the Hubble; Earth observation satellites from companies like Planet Labs, Umbra, and HawkEye 360; GPS; miniature CubeSats for education and research; and military/defense satellites.

Loading next visibility...
Loading greatness...
ONEWEB-0088 details
Identifier
45457, 2020-020AK
Orbit
LEO
Last TLE update18 hours ago
Origin
Flag of UKOne Web (UK)
ManufacturerOne Web
MissionOperational Commercial Communications
Bus & MotorARROW, Unknown motor
Mass148 kg wet, ~140 kg dry
Launch date (UTC)
2020-03-21 (5 years ago)
Launch vehicle
SOYUZ-2-1B
Launch site
Tyuratam Missile And Space Complex (TTMTR)
Object type
Payload
Rocket body
Debris
Shape & HBRTrap Box + 2 Pan, 5 m
Radar Cross Section2.957 m², Large (>1 m²)

Expand to show TLE details & history

TLE from 18 hours ago
0 ONEWEB-0088
1 45457U 20020AK  24279.14218654  .00000104  00000-0  25852-3 0  9994
2 45457  87.8935 144.5221 0001482  78.8648 281.2647 13.11419969221270
Epoch: 2024-10-05T03:24Z
Definitive object data (Epoch: 2024-10-05T03:24:44.917Z)
Latitude0.00005°
Longitude79.0322°
Altitude1,220.34 km
Speed7.244 km/s
True Right ascension09h 38m 05s
True Declination0° 00' 00"
Sunlit
Object was in daylight at TLE epoch
Predictive object data (real-time)
Latitude-25.47264°
Longitude77.88294°
Altitude1,227.4 km
Speed7.24 km/s
Apparent Right ascension07h 12m 10s
Apparent Declination-40° 51' 08"
Sunlit
Object is in daylight
Predictive observer data (real-time)
Local Sidereal Time15:35:24
Azimuth250.459° W
Elevation-49.389°
Doppler factor1
Orbital elements
Apogee1,215.914 km
Perigee1,213.664 km
Semi-major axis7,592.926 km
Eccentricity0.0001482
Inclination87.8935°
RAAN144.5221°
Arg. of periapsis78.8648°
True anomaly281.24804°
Mean anomaly281.2647°
Eccentric anomaly281.25637°
Mean motion3.28042 °/min
BSTAR0.00025852
Period109.74 mins
No data available

ONEWEB-0088 Visibility forecast

Observer location: 39.9160978°, -105.1181434

ONEWEB-0088 is not visible in the next 10 days
Span
Click to sort rows by Start time (UTC) header in descending order
Start Az.
Max El. time (UTC)
Max El. Az.
Max El.
End time (UTC)
End Az.